GFSFLT2_prec_precacc24_033.txt.gz
Total_Precipitation_Accumulation
1.73 0.86 0.47 0.23 0.01 0.00 0.00 0.00 0.00 0.00 0.00 0.00 0.00 0.00 0.00 0.00 0.00 0.00 0.00 0.00 0.00 0.00 0.00 0.00 0.00 0.00 0.00 0.00 0.00 0.00 0.00 0.00
1.57 1.25 0.37 0.03 0.00 0.00 0.00 0.00 0.00 0.00 0.00 0.00 0.00 0.00 0.00 0.00 0.00 0.00 0.00 0.00 0.00 0.00 0.00 0.00 0.00 0.00 0.00 0.00 0.00 0.00 0.00 0.00
2.13 1.35 0.36 0.02 0.00 0.00 0.00 0.00 0.00 0.00 0.00 0.00 0.00 0.00 0.00 0.00 0.00 0.00 0.00 0.00 0.00 0.00 0.00 0.00 0.00 0.00 0.00 0.00 0.00 0.00 0.00 0.00
1.02 0.51 0.16 0.04 0.00 0.00 0.00 0.00 0.00 0.00 0.00 0.00 0.02 0.00 0.00 0.00 0.00 0.00 0.00 0.00 0.00 0.00 0.00 0.00 0.00 0.00 0.00 0.00 0.00 0.00 0.00 0.00
0.11 0.16 0.01 0.00 0.00 0.00 0.00 0.00 0.00 0.01 0.04 0.05 0.05 0.02 0.02 0.02 0.04 0.00 0.00 0.00 0.00 0.00 0.00 0.00 0.00 0.00 0.00 0.00 0.00 0.00 0.00 0.00
0.01 0.01 0.00 0.00 0.00 0.00 0.00 0.00 0.02 0.08 0.09 0.05 0.05 0.05 0.05 0.01 0.01 0.00 0.00 0.00 0.00 0.00 0.00 0.00 0.00 0.00 0.00 0.00 0.00 0.00 0.00 0.00
0.02 0.00 0.00 0.00 0.00 0.00 0.01 0.03 0.07 0.11 0.05 0.04 0.03 0.01 0.02 0.01 0.00 0.00 0.00 0.00 0.00 0.00 0.00 0.00 0.00 0.00 0.00 0.00 0.00 0.00 0.00 0.00
0.07 0.01 0.00 0.00 0.00 0.03 0.04 0.11 0.10 0.08 0.08 0.18 0.13 0.02 0.00 0.00 0.00 0.00 0.00 0.00 0.00 0.00 0.00 0.00 0.00 0.00 0.00 0.00 0.00 0.00 0.00 0.00
0.21 0.14 0.02 0.00 0.02 0.10 0.22 0.22 0.08 0.02 0.13 0.24 0.11 0.01 0.00 0.00 0.00 0.00 0.00 0.00 0.00 0.00 0.00 0.00 0.00 0.00 0.00 0.00 0.00 0.00 0.00 0.00
0.56 0.30 0.11 0.10 0.13 0.25 0.55 0.35 0.10 0.05 0.08 0.09 0.03 0.01 0.01 0.00 0.00 0.00 0.00 0.00 0.00 0.00 0.00 0.00 0.00 0.00 0.00 0.00 0.00 0.00 0.00 0.00
0.67 0.51 0.35 0.55 0.95 1.18 0.67 0.09 0.02 0.01 0.02 0.03 0.02 0.01 0.00 0.00 0.00 0.00 0.00 0.00 0.00 0.00 0.00 0.00 0.00 0.00 0.00 0.00 0.00 0.00 0.00 0.00
0.68 0.60 0.86 1.21 1.06 0.32 0.07 0.01 0.01 0.01 0.02 0.01 0.00 0.00 0.00 0.00 0.00 0.00 0.00 0.00 0.00 0.00 0.00 0.00 0.00 0.00 0.00 0.00 0.00 0.00 0.00 0.00
0.65 0.71 0.57 0.27 0.09 0.06 0.04 0.04 0.04 0.02 0.00 0.00 0.00 0.00 0.00 0.00 0.00 0.00 0.00 0.00 0.00 0.00 0.00 0.00 0.00 0.00 0.00 0.00 0.00 0.00 0.00 0.00
0.32 0.23 0.12 0.09 0.07 0.07 0.05 0.03 0.01 0.00 0.00 0.00 0.00 0.00 0.00 0.00 0.00 0.00 0.00 0.00 0.00 0.00 0.00 0.00 0.00 0.00 0.00 0.00 0.00 0.00 0.00 0.00
0.06 0.09 0.05 0.09 0.06 0.01 0.00 0.00 0.00 0.00 0.00 0.00 0.00 0.00 0.00 0.00 0.00 0.00 0.00 0.00 0.00 0.00 0.00 0.00 0.00 0.00 0.00 0.00 0.00 0.00 0.00 0.00
0.08 0.04 0.01 0.01 0.00 0.00 0.00 0.00 0.00 0.00 0.00 0.00 0.00 0.00 0.00 0.00 0.00 0.00 0.00 0.00 0.00 0.00 0.00 0.00 0.00 0.00 0.00 0.00 0.00 0.00 0.01 0.01
0.03 0.01 0.01 0.00 0.00 0.00 0.00 0.00 0.00 0.00 0.00 0.00 0.00 0.00 0.00 0.00 0.00 0.00 0.00 0.00 0.00 0.00 0.00 0.00 0.00 0.00 0.00 0.00 0.00 0.00 0.00 0.03
0.01 0.00 0.00 0.00 0.00 0.00 0.00 0.00 0.00 0.00 0.00 0.00 0.00 0.00 0.00 0.01 0.00 0.00 0.00 0.00 0.00 0.00 0.00 0.00 0.00 0.00 0.00 0.01 0.02 0.04 0.04 0.06
0.00 0.00 0.00 0.00 0.00 0.00 0.00 0.00 0.00 0.00 0.00 0.00 0.00 0.01 0.01 0.00 0.00 0.00 0.00 0.00 0.00 0.00 0.00 0.00 0.00 0.01 0.01 0.02 0.03 0.04 0.04 0.05
0.00 0.00 0.00 0.00 0.00 0.00 0.00 0.00 0.00 0.00 0.00 0.00 0.00 0.00 0.00 0.00 0.00 0.00 0.00 0.00 0.00 0.00 0.01 0.01 0.03 0.04 0.04 0.04 0.03 0.02 0.02 0.05

GFSFLT2_prec_precacc24_036.txt.gz
Total_Precipitation_Accumulation
1.94 1.05 0.63 0.28 0.01 0.00 0.00 0.00 0.00 0.00 0.00 0.00 0.00 0.00 0.00 0.00 0.00 0.00 0.00 0.00 0.00 0.00 0.00 0.00 0.00 0.00 0.00 0.00 0.00 0.00 0.00 0.00
2.29 1.55 0.57 0.08 0.01 0.00 0.00 0.00 0.00 0.00 0.00 0.00 0.00 0.00 0.00 0.00 0.00 0.00 0.00 0.00 0.00 0.00 0.00 0.00 0.00 0.00 0.00 0.00 0.00 0.00 0.00 0.00
2.59 1.65 0.55 0.04 0.00 0.00 0.00 0.00 0.00 0.00 0.00 0.00 0.00 0.00 0.00 0.00 0.00 0.00 0.00 0.00 0.00 0.00 0.00 0.00 0.00 0.00 0.00 0.00 0.00 0.00 0.00 0.00
1.20 0.60 0.19 0.04 0.00 0.00 0.00 0.00 0.00 0.00 0.00 0.00 0.02 0.00 0.00 0.00 0.00 0.00 0.00 0.00 0.00 0.00 0.00 0.00 0.00 0.00 0.00 0.00 0.00 0.00 0.00 0.00
0.13 0.17 0.01 0.00 0.00 0.00 0.00 0.00 0.00 0.01 0.04 0.05 0.05 0.02 0.02 0.02 0.04 0.00 0.00 0.00 0.00 0.00 0.00 0.00 0.00 0.00 0.00 0.00 0.00 0.00 0.00 0.00
0.01 0.02 0.00 0.00 0.00 0.00 0.00 0.00 0.02 0.08 0.09 0.05 0.06 0.05 0.05 0.01 0.01 0.00 0.00 0.00 0.00 0.00 0.00 0.00 0.00 0.00 0.00 0.00 0.00 0.00 0.00 0.00
0.00 0.00 0.00 0.00 0.00 0.00 0.01 0.03 0.07 0.11 0.05 0.04 0.03 0.01 0.02 0.01 0.00 0.00 0.00 0.00 0.00 0.00 0.00 0.00 0.00 0.00 0.00 0.00 0.00 0.00 0.00 0.00
0.00 0.00 0.00 0.00 0.00 0.03 0.04 0.11 0.10 0.08 0.08 0.18 0.13 0.02 0.00 0.00 0.00 0.00 0.00 0.00 0.00 0.00 0.00 0.00 0.00 0.00 0.00 0.00 0.00 0.00 0.00 0.00
0.20 0.10 0.01 0.00 0.01 0.10 0.22 0.22 0.08 0.02 0.13 0.24 0.11 0.01 0.00 0.00 0.00 0.00 0.00 0.00 0.00 0.00 0.00 0.00 0.00 0.00 0.00 0.00 0.00 0.00 0.00 0.00
0.53 0.27 0.11 0.10 0.12 0.25 0.55 0.35 0.10 0.05 0.08 0.09 0.03 0.01 0.01 0.00 0.00 0.00 0.00 0.00 0.00 0.00 0.00 0.00 0.00 0.00 0.00 0.00 0.00 0.00 0.00 0.00
0.60 0.42 0.33 0.52 0.93 1.15 0.66 0.09 0.02 0.01 0.02 0.03 0.02 0.01 0.00 0.00 0.00 0.00 0.00 0.00 0.00 0.00 0.00 0.00 0.00 0.00 0.00 0.00 0.00 0.00 0.00 0.00
0.55 0.55 0.83 1.19 1.03 0.31 0.05 0.01 0.01 0.01 0.02 0.01 0.00 0.00 0.00 0.00 0.00 0.00 0.00 0.00 0.00 0.00 0.00 0.00 0.00 0.00 0.00 0.00 0.00 0.00 0.00 0.00
0.60 0.68 0.55 0.26 0.08 0.03 0.02 0.04 0.04 0.02 0.00 0.00 0.00 0.00 0.00 0.00 0.00 0.00 0.00 0.00 0.00 0.00 0.00 0.00 0.00 0.00 0.00 0.00 0.00 0.00 0.00 0.00
0.24 0.20 0.12 0.09 0.06 0.06 0.04 0.03 0.01 0.00 0.00 0.00 0.00 0.00 0.00 0.00 0.00 0.00 0.00 0.00 0.00 0.00 0.00 0.00 0.00 0.00 0.00 0.00 0.00 0.00 0.00 0.00
0.06 0.11 0.06 0.09 0.05 0.01 0.00 0.00 0.00 0.00 0.00 0.00 0.00 0.00 0.00 0.00 0.00 0.00 0.00 0.00 0.00 0.00 0.00 0.00 0.00 0.00 0.00 0.00 0.00 0.00 0.00 0.00
0.12 0.08 0.03 0.02 0.00 0.00 0.00 0.00 0.00 0.00 0.00 0.00 0.00 0.00 0.00 0.00 0.00 0.00 0.00 0.00 0.00 0.00 0.00 0.00 0.00 0.00 0.00 0.00 0.00 0.00 0.01 0.01
0.08 0.04 0.02 0.00 0.00 0.00 0.00 0.00 0.00 0.00 0.00 0.00 0.00 0.00 0.00 0.00 0.00 0.00 0.00 0.00 0.00 0.00 0.00 0.00 0.00 0.00 0.00 0.00 0.00 0.00 0.00 0.03
0.08 0.03 0.01 0.00 0.00 0.00 0.00 0.00 0.00 0.00 0.00 0.00 0.00 0.00 0.00 0.01 0.00 0.00 0.00 0.00 0.00 0.00 0.00 0.00 0.00 0.00 0.00 0.01 0.02 0.03 0.04 0.06
0.04 0.01 0.00 0.00 0.00 0.00 0.00 0.00 0.00 0.00 0.00 0.00 0.00 0.01 0.01 0.00 0.00 0.00 0.00 0.00 0.00 0.00 0.00 0.00 0.00 0.01 0.01 0.01 0.01 0.01 0.02 0.05
0.02 0.00 0.00 0.00 0.00 0.00 0.00 0.00 0.00 0.00 0.00 0.00 0.00 0.00 0.00 0.00 0.00 0.00 0.00 0.00 0.00 0.00 0.01 0.01 0.03 0.04 0.03 0.03 0.02 0.01 0.01 0.04

GFSFLT2_prec_precacc24_042.txt.gz
Total_Precipitation_Accumulation
3.62 1.94 0.94 0.34 0.01 0.00 0.00 0.00 0.00 0.00 0.00 0.00 0.00 0.00 0.00 0.00 0.00 0.00 0.00 0.00 0.00 0.00 0.00 0.00 0.00 0.00 0.00 0.00 0.00 0.00 0.00 0.00
4.33 2.39 0.80 0.10 0.01 0.00 0.00 0.00 0.00 0.00 0.00 0.00 0.00 0.00 0.00 0.00 0.00 0.00 0.00 0.00 0.00 0.00 0.00 0.00 0.00 0.00 0.00 0.00 0.00 0.00 0.00 0.00
3.92 2.18 0.66 0.08 0.01 0.00 0.00 0.00 0.00 0.00 0.00 0.00 0.00 0.00 0.00 0.00 0.00 0.00 0.00 0.00 0.00 0.00 0.00 0.00 0.00 0.00 0.00 0.00 0.00 0.00 0.00 0.00
1.68 0.87 0.28 0.08 0.02 0.00 0.00 0.00 0.00 0.00 0.00 0.00 0.02 0.00 0.00 0.00 0.00 0.00 0.00 0.00 0.00 0.00 0.00 0.00 0.00 0.00 0.00 0.00 0.00 0.00 0.00 0.00
0.30 0.31 0.09 0.03 0.00 0.00 0.00 0.00 0.00 0.01 0.04 0.05 0.05 0.02 0.02 0.02 0.04 0.00 0.00 0.00 0.00 0.00 0.00 0.00 0.00 0.00 0.00 0.00 0.00 0.00 0.00 0.00
0.05 0.06 0.01 0.00 0.00 0.00 0.00 0.00 0.02 0.08 0.09 0.05 0.06 0.05 0.05 0.01 0.01 0.00 0.00 0.00 0.00 0.00 0.00 0.00 0.00 0.00 0.00 0.00 0.00 0.00 0.00 0.00
0.00 0.01 0.00 0.00 0.00 0.00 0.01 0.03 0.07 0.11 0.05 0.04 0.03 0.01 0.02 0.01 0.00 0.00 0.00 0.00 0.00 0.00 0.00 0.00 0.00 0.00 0.00 0.00 0.00 0.00 0.00 0.00
0.00 0.00 0.00 0.00 0.00 0.03 0.04 0.10 0.09 0.08 0.09 0.19 0.14 0.02 0.00 0.00 0.00 0.00 0.00 0.00 0.00 0.00 0.00 0.00 0.00 0.00 0.00 0.00 0.00 0.00 0.00 0.00
0.06 0.06 0.01 0.00 0.01 0.10 0.18 0.12 0.04 0.05 0.15 0.25 0.14 0.02 0.00 0.00 0.00 0.00 0.00 0.00 0.00 0.00 0.00 0.00 0.00 0.00 0.00 0.00 0.00 0.00 0.00 0.00
0.13 0.14 0.09 0.06 0.05 0.14 0.36 0.28 0.12 0.07 0.09 0.10 0.04 0.01 0.01 0.00 0.00 0.00 0.00 0.00 0.00 0.00 0.00 0.00 0.00 0.00 0.00 0.00 0.00 0.00 0.00 0.00
0.16 0.19 0.20 0.27 0.58 0.68 0.46 0.10 0.06 0.03 0.03 0.03 0.02 0.01 0.00 0.00 0.00 0.00 0.00 0.00 0.00 0.00 0.00 0.00 0.00 0.00 0.00 0.00 0.00 0.00 0.00 0.00
0.14 0.21 0.39 0.85 0.84 0.22 0.04 0.02 0.04 0.01 0.01 0.01 0.00 0.00 0.00 0.00 0.00 0.00 0.00 0.00 0.00 0.00 0.00 0.00 0.00 0.00 0.00 0.00 0.00 0.00 0.00 0.00
0.17 0.33 0.31 0.16 0.05 0.02 0.01 0.01 0.01 0.00 0.00 0.00 0.00 0.00 0.00 0.00 0.00 0.00 0.00 0.00 0.00 0.00 0.00 0.00 0.00 0.00 0.00 0.00 0.00 0.00 0.00 0.00
0.14 0.09 0.06 0.08 0.05 0.03 0.00 0.00 0.00 0.00 0.00 0.00 0.00 0.00 0.00 0.00 0.00 0.00 0.00 0.00 0.00 0.00 0.00 0.00 0.00 0.00 0.00 0.00 0.00 0.00 0.00 0.00
0.07 0.13 0.07 0.09 0.04 0.00 0.00 0.00 0.00 0.00 0.00 0.00 0.00 0.00 0.00 0.00 0.00 0.00 0.00 0.00 0.00 0.00 0.00 0.00 0.00 0.00 0.00 0.00 0.00 0.00 0.00 0.00
0.12 0.10 0.09 0.03 0.01 0.00 0.00 0.00 0.00 0.00 0.00 0.00 0.00 0.00 0.00 0.00 0.00 0.00 0.00 0.00 0.00 0.00 0.00 0.00 0.00 0.00 0.00 0.00 0.00 0.00 0.00 0.00
0.09 0.10 0.13 0.04 0.02 0.00 0.01 0.01 0.00 0.00 0.00 0.00 0.00 0.00 0.00 0.00 0.00 0.00 0.00 0.00 0.00 0.00 0.00 0.00 0.00 0.00 0.00 0.00 0.00 0.00 0.00 0.01
0.11 0.10 0.08 0.07 0.04 0.01 0.04 0.07 0.06 0.03 0.03 0.01 0.00 0.00 0.00 0.00 0.00 0.00 0.00 0.00 0.00 0.00 0.00 0.00 0.00 0.00 0.00 0.00 0.00 0.00 0.00 0.00
0.10 0.04 0.05 0.04 0.03 0.03 0.03 0.10 0.07 0.07 0.04 0.02 0.01 0.00 0.00 0.00 0.00 0.00 0.00 0.01 0.02 0.02 0.00 0.00 0.00 0.01 0.01 0.00 0.00 0.00 0.00 0.01
0.08 0.03 0.05 0.04 0.01 0.02 0.01 0.05 0.08 0.11 0.07 0.04 0.01 0.00 0.00 0.00 0.00 0.00 0.02 0.05 0.04 0.01 0.01 0.01 0.03 0.04 0.03 0.03 0.02 0.01 0.01 0.02

GFSFLT2_prec_precacc24_045.txt.gz
Total_Precipitation_Accumulation
4.14 2.45 1.33 0.48 0.01 0.00 0.00 0.00 0.00 0.00 0.00 0.00 0.00 0.00 0.00 0.00 0.00 0.00 0.00 0.00 0.00 0.00 0.00 0.00 0.00 0.00 0.00 0.00 0.00 0.00 0.00 0.00
4.89 3.18 1.22 0.24 0.04 0.00 0.00 0.00 0.00 0.00 0.00 0.00 0.00 0.00 0.00 0.00 0.00 0.00 0.00 0.00 0.00 0.00 0.00 0.00 0.00 0.00 0.00 0.00 0.00 0.00 0.00 0.00
4.51 2.66 1.05 0.23 0.06 0.01 0.02 0.01 0.00 0.00 0.00 0.00 0.00 0.00 0.00 0.00 0.00 0.00 0.00 0.00 0.00 0.00 0.00 0.00 0.00 0.00 0.00 0.00 0.00 0.00 0.00 0.00
2.02 1.35 0.50 0.18 0.04 0.01 0.01 0.00 0.00 0.00 0.00 0.00 0.02 0.00 0.00 0.00 0.00 0.00 0.00 0.00 0.00 0.00 0.00 0.00 0.00 0.00 0.00 0.00 0.00 0.00 0.00 0.00
0.32 0.39 0.20 0.07 0.02 0.02 0.01 0.00 0.00 0.01 0.04 0.05 0.05 0.02 0.02 0.02 0.04 0.00 0.00 0.00 0.00 0.00 0.00 0.00 0.00 0.00 0.00 0.00 0.00 0.00 0.00 0.00
0.05 0.07 0.09 0.07 0.02 0.00 0.00 0.00 0.02 0.08 0.09 0.05 0.06 0.05 0.05 0.01 0.01 0.00 0.00 0.00 0.00 0.00 0.00 0.00 0.00 0.00 0.00 0.00 0.00 0.00 0.00 0.00
0.01 0.02 0.05 0.03 0.00 0.00 0.01 0.03 0.06 0.09 0.05 0.04 0.03 0.01 0.02 0.01 0.00 0.00 0.00 0.00 0.00 0.00 0.00 0.00 0.00 0.00 0.00 0.00 0.00 0.00 0.00 0.00
0.00 0.00 0.00 0.00 0.00 0.03 0.03 0.03 0.01 0.01 0.05 0.15 0.12 0.02 0.00 0.00 0.00 0.00 0.00 0.00 0.00 0.00 0.00 0.00 0.00 0.00 0.00 0.00 0.00 0.00 0.00 0.00
0.00 0.01 0.00 0.00 0.01 0.03 0.05 0.02 0.01 0.03 0.05 0.17 0.13 0.03 0.00 0.01 0.00 0.00 0.00 0.00 0.00 0.00 0.00 0.00 0.00 0.00 0.00 0.00 0.00 0.00 0.00 0.00
0.04 0.07 0.04 0.02 0.02 0.04 0.16 0.12 0.05 0.06 0.05 0.05 0.03 0.02 0.01 0.00 0.00 0.00 0.00 0.00 0.00 0.00 0.00 0.00 0.00 0.00 0.00 0.00 0.00 0.00 0.00 0.00
0.02 0.07 0.12 0.16 0.31 0.40 0.24 0.06 0.05 0.03 0.03 0.04 0.02 0.02 0.00 0.00 0.00 0.00 0.00 0.00 0.00 0.00 0.00 0.00 0.00 0.00 0.00 0.00 0.00 0.00 0.00 0.00
0.02 0.09 0.22 0.40 0.57 0.15 0.02 0.01 0.04 0.02 0.02 0.01 0.01 0.00 0.00 0.00 0.00 0.00 0.00 0.00 0.00 0.00 0.00 0.00 0.00 0.00 0.00 0.00 0.00 0.00 0.00 0.00
0.05 0.09 0.07 0.02 0.01 0.02 0.01 0.01 0.01 0.00 0.01 0.00 0.00 0.00 0.00 0.00 0.00 0.00 0.00 0.00 0.00 0.00 0.00 0.00 0.00 0.00 0.00 0.00 0.00 0.00 0.00 0.00
0.06 0.03 0.04 0.08 0.05 0.03 0.00 0.00 0.00 0.00 0.00 0.00 0.00 0.00 0.00 0.00 0.00 0.00 0.00 0.00 0.00 0.00 0.00 0.00 0.00 0.00 0.00 0.00 0.00 0.00 0.00 0.00
0.07 0.13 0.07 0.09 0.04 0.00 0.00 0.00 0.00 0.00 0.00 0.00 0.00 0.00 0.00 0.00 0.00 0.00 0.00 0.00 0.00 0.00 0.00 0.00 0.00 0.00 0.00 0.00 0.00 0.00 0.00 0.00
0.12 0.10 0.09 0.03 0.01 0.00 0.00 0.00 0.00 0.02 0.05 0.02 0.01 0.00 0.00 0.00 0.00 0.00 0.00 0.00 0.00 0.00 0.00 0.00 0.00 0.00 0.00 0.00 0.00 0.00 0.00 0.00
0.09 0.10 0.13 0.04 0.02 0.00 0.01 0.01 0.01 0.03 0.04 0.02 0.00 0.00 0.00 0.00 0.00 0.00 0.00 0.00 0.00 0.00 0.00 0.00 0.00 0.00 0.00 0.00 0.00 0.00 0.00 0.00
0.11 0.11 0.08 0.07 0.04 0.01 0.04 0.07 0.06 0.04 0.05 0.02 0.01 0.00 0.00 0.00 0.00 0.00 0.00 0.00 0.00 0.00 0.00 0.01 0.00 0.00 0.00 0.00 0.00 0.00 0.00 0.00
0.10 0.04 0.06 0.04 0.03 0.04 0.05 0.11 0.07 0.07 0.05 0.04 0.04 0.02 0.01 0.00 0.00 0.00 0.00 0.01 0.02 0.06 0.07 0.03 0.00 0.01 0.01 0.00 0.00 0.00 0.00 0.01
0.08 0.03 0.06 0.06 0.08 0.05 0.03 0.06 0.09 0.12 0.10 0.08 0.05 0.03 0.02 0.01 0.00 0.00 0.03 0.07 0.08 0.04 0.01 0.01 0.03 0.04 0.03 0.03 0.02 0.01 0.01 0.01

GFSFLT2_prec_precacc24_048.txt.gz
Total_Precipitation_Accumulation
4.33 2.49 1.31 0.49 0.08 0.02 0.00 0.00 0.00 0.00 0.00 0.00 0.00 0.00 0.00 0.00 0.00 0.00 0.00 0.00 0.00 0.00 0.00 0.00 0.00 0.00 0.00 0.00 0.00 0.00 0.00 0.00
5.12 3.37 1.52 0.36 0.10 0.04 0.00 0.00 0.00 0.00 0.00 0.00 0.00 0.00 0.00 0.00 0.00 0.00 0.00 0.00 0.00 0.00 0.00 0.00 0.00 0.00 0.00 0.00 0.00 0.00 0.00 0.00
4.70 2.84 1.38 0.46 0.19 0.12 0.04 0.01 0.00 0.00 0.00 0.00 0.00 0.00 0.00 0.00 0.00 0.00 0.00 0.00 0.00 0.00 0.00 0.00 0.00 0.00 0.00 0.00 0.00 0.00 0.00 0.00
2.18 1.46 0.67 0.35 0.18 0.14 0.02 0.00 0.00 0.00 0.00 0.00 0.02 0.00 0.00 0.00 0.00 0.00 0.00 0.00 0.00 0.00 0.00 0.00 0.00 0.00 0.00 0.00 0.00 0.00 0.00 0.00
0.56 0.59 0.36 0.23 0.09 0.07 0.01 0.00 0.00 0.01 0.04 0.05 0.05 0.01 0.02 0.02 0.04 0.00 0.00 0.00 0.00 0.00 0.00 0.00 0.00 0.00 0.00 0.00 0.00 0.00 0.00 0.00
0.21 0.17 0.22 0.11 0.06 0.04 0.04 0.02 0.02 0.06 0.08 0.05 0.04 0.04 0.05 0.01 0.01 0.00 0.00 0.00 0.00 0.00 0.00 0.00 0.00 0.00 0.00 0.00 0.00 0.00 0.00 0.00
0.08 0.05 0.07 0.07 0.04 0.03 0.03 0.03 0.05 0.09 0.05 0.02 0.02 0.01 0.02 0.01 0.00 0.00 0.00 0.00 0.00 0.00 0.00 0.00 0.00 0.00 0.00 0.00 0.00 0.00 0.00 0.00
0.03 0.04 0.02 0.03 0.02 0.04 0.02 0.02 0.01 0.01 0.01 0.01 0.03 0.01 0.00 0.00 0.00 0.00 0.00 0.00 0.00 0.00 0.00 0.00 0.00 0.00 0.00 0.00 0.00 0.00 0.00 0.00
0.01 0.02 0.04 0.04 0.01 0.01 0.00 0.00 0.00 0.03 0.03 0.06 0.07 0.03 0.00 0.01 0.00 0.00 0.00 0.00 0.00 0.00 0.00 0.00 0.00 0.00 0.00 0.00 0.00 0.00 0.00 0.00
0.00 0.01 0.02 0.02 0.01 0.02 0.10 0.06 0.04 0.06 0.05 0.04 0.03 0.02 0.01 0.00 0.00 0.00 0.00 0.00 0.00 0.00 0.00 0.00 0.00 0.00 0.00 0.00 0.00 0.00 0.00 0.00
0.00 0.00 0.05 0.10 0.14 0.21 0.12 0.05 0.05 0.03 0.04 0.04 0.03 0.02 0.03 0.01 0.00 0.00 0.00 0.00 0.00 0.00 0.00 0.00 0.00 0.00 0.00 0.00 0.00 0.00 0.00 0.00
0.01 0.01 0.07 0.12 0.22 0.06 0.01 0.01 0.03 0.02 0.02 0.01 0.01 0.02 0.01 0.00 0.00 0.00 0.00 0.00 0.00 0.00 0.00 0.00 0.00 0.00 0.00 0.00 0.00 0.00 0.00 0.00
0.05 0.03 0.02 0.04 0.01 0.02 0.01 0.01 0.01 0.00 0.01 0.00 0.00 0.01 0.00 0.00 0.00 0.00 0.00 0.00 0.00 0.00 0.00 0.00 0.00 0.00 0.00 0.00 0.00 0.00 0.00 0.00
0.05 0.03 0.04 0.08 0.05 0.03 0.00 0.00 0.00 0.00 0.00 0.00 0.00 0.00 0.00 0.00 0.00 0.00 0.00 0.00 0.00 0.00 0.00 0.00 0.00 0.00 0.00 0.00 0.00 0.00 0.00 0.00
0.07 0.13 0.07 0.09 0.04 0.00 0.00 0.00 0.00 0.00 0.01 0.02 0.01 0.00 0.00 0.00 0.00 0.00 0.00 0.00 0.00 0.00 0.00 0.00 0.00 0.00 0.00 0.00 0.00 0.00 0.00 0.00
0.12 0.10 0.09 0.03 0.01 0.00 0.00 0.00 0.00 0.02 0.06 0.03 0.02 0.00 0.00 0.00 0.00 0.00 0.00 0.00 0.00 0.00 0.00 0.00 0.00 0.00 0.00 0.00 0.00 0.00 0.00 0.00
0.09 0.10 0.13 0.04 0.02 0.00 0.01 0.01 0.01 0.03 0.04 0.04 0.02 0.01 0.00 0.00 0.00 0.00 0.00 0.00 0.00 0.00 0.00 0.00 0.00 0.00 0.00 0.00 0.00 0.00 0.00 0.00
0.11 0.11 0.08 0.07 0.04 0.01 0.04 0.07 0.06 0.04 0.05 0.03 0.02 0.02 0.01 0.00 0.00 0.00 0.00 0.00 0.00 0.00 0.00 0.01 0.01 0.00 0.00 0.00 0.00 0.00 0.00 0.00
0.10 0.04 0.06 0.04 0.03 0.06 0.10 0.15 0.10 0.08 0.06 0.05 0.05 0.03 0.02 0.02 0.01 0.00 0.01 0.01 0.02 0.06 0.07 0.04 0.01 0.01 0.01 0.00 0.00 0.00 0.00 0.00
0.08 0.03 0.06 0.06 0.09 0.06 0.08 0.14 0.12 0.13 0.11 0.08 0.06 0.04 0.03 0.02 0.01 0.01 0.04 0.07 0.08 0.04 0.01 0.01 0.03 0.04 0.03 0.03 0.02 0.01 0.01 0.01

GFSFLT2_prec_precacc24_054.txt.gz
Total_Precipitation_Accumulation
3.43 2.32 1.36 0.50 0.14 0.04 0.01 0.00 0.00 0.00 0.00 0.00 0.00 0.00 0.00 0.00 0.00 0.00 0.00 0.00 0.00 0.00 0.00 0.00 0.00 0.00 0.00 0.00 0.00 0.00 0.00 0.00
4.96 3.41 1.70 0.69 0.34 0.12 0.07 0.03 0.01 0.00 0.00 0.00 0.00 0.00 0.00 0.00 0.00 0.00 0.00 0.00 0.00 0.00 0.00 0.00 0.00 0.00 0.00 0.00 0.00 0.00 0.00 0.00
4.19 3.09 1.62 0.81 0.66 0.40 0.16 0.07 0.01 0.00 0.00 0.00 0.00 0.00 0.00 0.00 0.00 0.00 0.00 0.00 0.00 0.00 0.00 0.00 0.00 0.00 0.00 0.00 0.00 0.00 0.00 0.00
2.07 1.52 0.73 0.42 0.32 0.32 0.25 0.11 0.03 0.00 0.00 0.00 0.00 0.00 0.00 0.00 0.00 0.00 0.00 0.00 0.00 0.00 0.00 0.00 0.00 0.00 0.00 0.00 0.00 0.00 0.00 0.00
0.67 0.74 0.45 0.31 0.20 0.22 0.16 0.10 0.05 0.00 0.00 0.00 0.00 0.01 0.01 0.01 0.01 0.00 0.00 0.00 0.00 0.00 0.00 0.00 0.00 0.00 0.00 0.00 0.00 0.00 0.00 0.00
0.37 0.33 0.43 0.37 0.31 0.28 0.22 0.16 0.03 0.01 0.01 0.00 0.00 0.00 0.02 0.01 0.00 0.00 0.00 0.00 0.00 0.00 0.00 0.00 0.00 0.00 0.00 0.00 0.00 0.00 0.00 0.00
0.26 0.26 0.29 0.26 0.26 0.29 0.25 0.14 0.05 0.04 0.01 0.01 0.00 0.00 0.00 0.01 0.00 0.00 0.00 0.00 0.00 0.00 0.00 0.00 0.00 0.00 0.00 0.00 0.00 0.00 0.00 0.00
0.35 0.34 0.23 0.30 0.28 0.23 0.18 0.04 0.01 0.01 0.02 0.03 0.02 0.01 0.00 0.00 0.00 0.00 0.00 0.00 0.00 0.00 0.00 0.00 0.00 0.00 0.00 0.00 0.00 0.00 0.00 0.00
0.17 0.16 0.21 0.21 0.13 0.13 0.05 0.01 0.01 0.03 0.03 0.06 0.08 0.04 0.00 0.00 0.00 0.00 0.00 0.00 0.00 0.00 0.00 0.00 0.00 0.00 0.00 0.00 0.00 0.00 0.00 0.00
0.02 0.02 0.05 0.08 0.05 0.04 0.01 0.01 0.04 0.06 0.05 0.05 0.03 0.02 0.02 0.00 0.00 0.00 0.00 0.00 0.00 0.00 0.00 0.00 0.00 0.00 0.00 0.00 0.00 0.00 0.00 0.00
0.01 0.02 0.04 0.03 0.02 0.00 0.00 0.04 0.04 0.04 0.05 0.08 0.05 0.06 0.08 0.04 0.01 0.00 0.00 0.00 0.00 0.00 0.00 0.00 0.00 0.00 0.00 0.00 0.00 0.00 0.00 0.00
0.00 0.01 0.05 0.04 0.05 0.02 0.01 0.02 0.03 0.03 0.06 0.03 0.08 0.10 0.08 0.06 0.04 0.01 0.00 0.00 0.00 0.00 0.00 0.00 0.00 0.00 0.00 0.00 0.00 0.00 0.00 0.00
0.00 0.00 0.02 0.08 0.03 0.02 0.01 0.00 0.01 0.01 0.04 0.01 0.04 0.07 0.04 0.06 0.06 0.01 0.00 0.00 0.00 0.00 0.00 0.00 0.00 0.00 0.00 0.00 0.00 0.00 0.00 0.00
0.02 0.01 0.02 0.07 0.05 0.02 0.00 0.00 0.00 0.00 0.01 0.02 0.05 0.10 0.03 0.01 0.02 0.01 0.01 0.00 0.00 0.00 0.00 0.00 0.00 0.00 0.00 0.00 0.00 0.00 0.00 0.00
0.05 0.09 0.02 0.04 0.03 0.00 0.00 0.00 0.00 0.00 0.01 0.03 0.04 0.04 0.03 0.00 0.00 0.00 0.00 0.00 0.00 0.00 0.00 0.00 0.00 0.00 0.00 0.00 0.00 0.00 0.00 0.00
0.10 0.07 0.07 0.02 0.01 0.00 0.00 0.00 0.00 0.02 0.06 0.03 0.03 0.03 0.04 0.01 0.00 0.00 0.00 0.00 0.00 0.00 0.00 0.00 0.00 0.00 0.00 0.00 0.00 0.00 0.00 0.00
0.08 0.10 0.13 0.04 0.02 0.00 0.01 0.01 0.01 0.03 0.04 0.05 0.03 0.01 0.01 0.02 0.01 0.01 0.01 0.00 0.00 0.00 0.00 0.00 0.00 0.00 0.00 0.00 0.00 0.00 0.00 0.00
0.11 0.11 0.08 0.07 0.04 0.01 0.05 0.09 0.06 0.04 0.05 0.04 0.04 0.02 0.01 0.01 0.02 0.02 0.02 0.02 0.03 0.02 0.02 0.02 0.01 0.01 0.00 0.00 0.00 0.00 0.00 0.00
0.10 0.04 0.06 0.04 0.03 0.06 0.10 0.19 0.14 0.08 0.06 0.06 0.09 0.04 0.03 0.05 0.05 0.03 0.02 0.02 0.04 0.07 0.07 0.04 0.01 0.01 0.02 0.03 0.01 0.00 0.00 0.00
0.08 0.03 0.06 0.06 0.13 0.25 0.22 0.21 0.28 0.36 0.17 0.09 0.12 0.06 0.06 0.06 0.06 0.03 0.05 0.08 0.08 0.04 0.01 0.02 0.04 0.06 0.08 0.03 0.02 0.02 0.02 0.02

GFSFLT2_prec_precacc24_060.txt.gz
Total_Precipitation_Accumulation
3.16 2.11 1.29 0.81 0.54 1.12 1.04 0.12 0.01 0.00 0.01 0.02 0.02 0.01 0.01 0.00 0.00 0.00 0.00 0.00 0.00 0.00 0.00 0.00 0.00 0.00 0.00 0.00 0.00 0.00 0.00 0.00
3.80 2.55 1.55 0.86 0.77 0.56 0.33 0.12 0.03 0.00 0.00 0.01 0.05 0.05 0.02 0.00 0.00 0.00 0.00 0.00 0.00 0.00 0.00 0.00 0.00 0.00 0.00 0.00 0.00 0.00 0.00 0.00
2.96 2.21 1.52 1.05 1.05 0.87 0.38 0.13 0.02 0.00 0.02 0.06 0.04 0.07 0.08 0.02 0.00 0.00 0.00 0.00 0.00 0.00 0.00 0.00 0.00 0.00 0.00 0.00 0.00 0.00 0.00 0.00
1.23 1.17 0.72 0.56 0.51 0.43 0.34 0.21 0.06 0.00 0.01 0.03 0.04 0.04 0.03 0.00 0.00 0.00 0.00 0.00 0.00 0.00 0.00 0.00 0.00 0.00 0.00 0.00 0.00 0.00 0.00 0.00
0.60 0.68 0.52 0.37 0.27 0.23 0.16 0.12 0.08 0.01 0.01 0.01 0.02 0.01 0.00 0.00 0.00 0.00 0.00 0.00 0.00 0.00 0.00 0.00 0.00 0.00 0.00 0.00 0.00 0.00 0.00 0.00
0.51 0.39 0.52 0.45 0.34 0.29 0.22 0.16 0.04 0.03 0.02 0.01 0.01 0.00 0.00 0.00 0.00 0.00 0.00 0.00 0.00 0.00 0.00 0.00 0.00 0.00 0.00 0.00 0.00 0.00 0.00 0.00
0.50 0.33 0.37 0.33 0.31 0.32 0.26 0.16 0.06 0.09 0.03 0.02 0.00 0.00 0.01 0.00 0.00 0.00 0.00 0.00 0.00 0.00 0.00 0.00 0.00 0.00 0.00 0.00 0.00 0.00 0.00 0.00
0.50 0.55 0.28 0.33 0.34 0.33 0.29 0.12 0.06 0.08 0.05 0.05 0.02 0.01 0.00 0.00 0.00 0.00 0.00 0.00 0.00 0.00 0.00 0.00 0.00 0.00 0.00 0.00 0.00 0.00 0.00 0.00
0.31 0.30 0.38 0.25 0.15 0.19 0.15 0.10 0.06 0.09 0.08 0.08 0.08 0.04 0.00 0.00 0.00 0.01 0.00 0.00 0.00 0.00 0.00 0.00 0.00 0.00 0.00 0.00 0.00 0.00 0.00 0.00
0.09 0.09 0.09 0.15 0.07 0.06 0.02 0.02 0.06 0.09 0.08 0.06 0.03 0.02 0.02 0.01 0.04 0.03 0.00 0.00 0.00 0.00 0.00 0.00 0.00 0.00 0.00 0.00 0.00 0.00 0.00 0.00
0.05 0.05 0.04 0.04 0.02 0.00 0.00 0.04 0.05 0.04 0.06 0.08 0.06 0.06 0.08 0.04 0.02 0.00 0.01 0.02 0.00 0.00 0.00 0.00 0.00 0.00 0.00 0.00 0.00 0.00 0.00 0.00
0.00 0.01 0.02 0.04 0.04 0.00 0.00 0.02 0.03 0.03 0.06 0.03 0.08 0.10 0.08 0.07 0.05 0.03 0.04 0.05 0.00 0.00 0.00 0.00 0.00 0.00 0.00 0.00 0.00 0.00 0.00 0.00
0.00 0.00 0.01 0.08 0.02 0.00 0.00 0.00 0.01 0.01 0.04 0.01 0.04 0.07 0.04 0.07 0.09 0.07 0.09 0.04 0.01 0.00 0.00 0.00 0.00 0.00 0.00 0.00 0.00 0.00 0.00 0.00
0.01 0.00 0.01 0.07 0.03 0.00 0.00 0.00 0.00 0.00 0.01 0.03 0.06 0.10 0.04 0.04 0.07 0.04 0.03 0.02 0.00 0.00 0.00 0.00 0.00 0.00 0.00 0.00 0.00 0.00 0.00 0.00
0.00 0.02 0.02 0.03 0.00 0.00 0.00 0.00 0.00 0.00 0.01 0.03 0.04 0.04 0.03 0.00 0.04 0.01 0.00 0.00 0.00 0.00 0.00 0.00 0.00 0.00 0.00 0.00 0.00 0.00 0.00 0.00
0.00 0.02 0.05 0.01 0.00 0.01 0.00 0.00 0.00 0.02 0.06 0.03 0.04 0.05 0.05 0.02 0.01 0.01 0.00 0.00 0.00 0.00 0.00 0.00 0.00 0.00 0.00 0.00 0.00 0.00 0.00 0.00
0.01 0.06 0.10 0.03 0.01 0.00 0.02 0.01 0.01 0.03 0.04 0.05 0.03 0.02 0.03 0.03 0.02 0.06 0.02 0.01 0.04 0.05 0.02 0.01 0.01 0.01 0.01 0.01 0.02 0.01 0.00 0.00
0.03 0.08 0.07 0.06 0.04 0.01 0.06 0.13 0.08 0.06 0.05 0.04 0.05 0.04 0.01 0.04 0.05 0.03 0.05 0.04 0.09 0.11 0.08 0.06 0.05 0.04 0.05 0.08 0.09 0.03 0.04 0.08
0.06 0.03 0.06 0.04 0.03 0.06 0.10 0.21 0.17 0.17 0.09 0.06 0.13 0.08 0.03 0.07 0.15 0.11 0.09 0.18 0.19 0.19 0.14 0.09 0.07 0.14 0.23 0.19 0.16 0.15 0.08 0.04
0.07 0.03 0.06 0.06 0.13 0.25 0.22 0.21 0.28 0.40 0.30 0.16 0.24 0.14 0.10 0.12 0.21 0.35 0.31 0.29 0.25 0.17 0.10 0.10 0.10 0.13 0.16 0.14 0.13 0.14 0.17 0.13

GFSFLT2_prec_precacc24_066.txt.gz
Total_Precipitation_Accumulation
2.01 1.66 2.23 2.98 1.95 1.59 1.89 1.02 0.26 0.11 0.02 0.02 0.02 0.01 0.01 0.00 0.00 0.00 0.00 0.00 0.00 0.00 0.00 0.00 0.00 0.00 0.00 0.00 0.00 0.00 0.00 0.00
2.40 2.38 1.94 1.35 2.00 1.67 1.20 0.70 0.40 0.17 0.06 0.03 0.05 0.05 0.02 0.00 0.00 0.00 0.00 0.00 0.00 0.00 0.00 0.00 0.00 0.00 0.00 0.00 0.00 0.00 0.00 0.00
2.56 3.72 2.43 1.38 1.38 1.46 0.80 0.43 0.44 0.38 0.19 0.12 0.04 0.07 0.08 0.02 0.00 0.00 0.00 0.00 0.00 0.00 0.00 0.00 0.00 0.00 0.00 0.00 0.00 0.00 0.00 0.00
1.05 1.79 1.18 0.71 0.83 0.80 0.55 0.40 0.27 0.48 0.31 0.11 0.04 0.04 0.03 0.00 0.00 0.00 0.00 0.00 0.00 0.00 0.00 0.00 0.00 0.00 0.00 0.00 0.00 0.00 0.00 0.00
0.71 0.81 0.78 0.54 0.39 0.37 0.19 0.18 0.19 0.28 0.28 0.12 0.02 0.02 0.00 0.00 0.00 0.00 0.00 0.00 0.00 0.00 0.00 0.00 0.00 0.00 0.00 0.00 0.00 0.00 0.00 0.00
0.87 0.69 0.86 0.72 0.46 0.37 0.25 0.17 0.05 0.12 0.11 0.07 0.01 0.00 0.00 0.00 0.00 0.00 0.00 0.00 0.00 0.00 0.00 0.00 0.00 0.00 0.00 0.00 0.00 0.00 0.00 0.00
0.82 0.66 0.65 0.60 0.46 0.40 0.29 0.16 0.07 0.10 0.06 0.06 0.00 0.00 0.01 0.00 0.00 0.00 0.00 0.00 0.00 0.00 0.00 0.00 0.00 0.00 0.00 0.00 0.00 0.00 0.00 0.00
0.75 0.90 0.57 0.50 0.48 0.42 0.39 0.20 0.08 0.10 0.06 0.07 0.01 0.01 0.00 0.00 0.00 0.00 0.00 0.00 0.00 0.00 0.00 0.00 0.00 0.00 0.00 0.00 0.00 0.00 0.00 0.00
0.57 0.62 0.85 0.55 0.31 0.32 0.25 0.19 0.15 0.11 0.08 0.08 0.05 0.02 0.00 0.00 0.00 0.01 0.00 0.00 0.00 0.00 0.00 0.00 0.00 0.00 0.00 0.00 0.00 0.00 0.00 0.00
0.18 0.30 0.54 0.57 0.33 0.15 0.11 0.07 0.08 0.11 0.12 0.08 0.03 0.02 0.02 0.01 0.04 0.03 0.00 0.00 0.00 0.00 0.00 0.00 0.00 0.00 0.00 0.00 0.00 0.00 0.00 0.00
0.09 0.19 0.25 0.25 0.22 0.11 0.05 0.04 0.05 0.07 0.08 0.09 0.06 0.06 0.08 0.04 0.02 0.00 0.01 0.02 0.00 0.00 0.00 0.00 0.00 0.00 0.00 0.00 0.00 0.00 0.00 0.00
0.01 0.07 0.13 0.21 0.11 0.13 0.07 0.04 0.02 0.06 0.09 0.04 0.08 0.10 0.08 0.07 0.05 0.03 0.05 0.05 0.00 0.00 0.00 0.00 0.00 0.00 0.00 0.00 0.00 0.00 0.00 0.00
0.00 0.00 0.03 0.12 0.04 0.07 0.05 0.06 0.02 0.02 0.05 0.02 0.05 0.07 0.05 0.07 0.09 0.08 0.10 0.05 0.01 0.00 0.00 0.00 0.00 0.00 0.00 0.00 0.00 0.00 0.00 0.00
0.00 0.00 0.01 0.07 0.03 0.01 0.01 0.04 0.01 0.00 0.01 0.03 0.06 0.10 0.05 0.08 0.09 0.05 0.05 0.04 0.02 0.00 0.00 0.00 0.00 0.00 0.00 0.00 0.00 0.00 0.00 0.00
0.00 0.00 0.00 0.03 0.00 0.00 0.00 0.01 0.01 0.00 0.01 0.04 0.04 0.05 0.05 0.03 0.10 0.07 0.05 0.01 0.00 0.00 0.00 0.01 0.01 0.01 0.00 0.00 0.00 0.00 0.00 0.00
0.00 0.00 0.00 0.00 0.00 0.01 0.00 0.00 0.01 0.02 0.06 0.03 0.04 0.05 0.05 0.02 0.01 0.01 0.02 0.00 0.00 0.00 0.02 0.02 0.03 0.02 0.01 0.01 0.00 0.00 0.00 0.00
0.00 0.00 0.00 0.00 0.00 0.00 0.01 0.00 0.01 0.03 0.04 0.05 0.03 0.02 0.03 0.03 0.02 0.06 0.02 0.01 0.04 0.05 0.04 0.05 0.06 0.05 0.05 0.03 0.04 0.04 0.03 0.02
0.00 0.01 0.00 0.00 0.00 0.00 0.02 0.06 0.02 0.02 0.02 0.02 0.05 0.04 0.01 0.04 0.05 0.03 0.06 0.04 0.09 0.12 0.16 0.14 0.19 0.15 0.10 0.12 0.13 0.11 0.09 0.13
0.00 0.00 0.00 0.00 0.00 0.02 0.06 0.11 0.10 0.11 0.05 0.04 0.11 0.08 0.03 0.07 0.15 0.11 0.08 0.20 0.22 0.29 0.31 0.29 0.32 0.39 0.50 0.46 0.31 0.23 0.14 0.10
0.00 0.00 0.01 0.02 0.11 0.23 0.20 0.16 0.20 0.29 0.23 0.12 0.23 0.14 0.10 0.13 0.21 0.35 0.29 0.28 0.28 0.34 0.44 0.61 0.69 0.62 0.46 0.33 0.25 0.20 0.24 0.23

GFSFLT2_prec_precacc24_069.txt.gz
Total_Precipitation_Accumulation
1.79 1.31 1.91 2.88 2.03 1.68 1.96 1.17 0.40 0.19 0.04 0.02 0.02 0.01 0.02 0.00 0.00 0.00 0.00 0.00 0.00 0.00 0.00 0.00 0.00 0.00 0.00 0.00 0.00 0.00 0.00 0.00
1.98 1.77 1.83 1.30 2.04 1.77 1.34 0.87 0.61 0.32 0.12 0.04 0.05 0.05 0.02 0.00 0.00 0.00 0.00 0.00 0.00 0.00 0.00 0.00 0.00 0.00 0.00 0.00 0.00 0.00 0.00 0.00
2.05 3.53 2.50 1.95 1.66 1.89 1.38 0.92 0.69 0.58 0.31 0.14 0.04 0.07 0.08 0.02 0.00 0.00 0.00 0.00 0.00 0.00 0.00 0.00 0.00 0.00 0.00 0.00 0.00 0.00 0.00 0.00
0.82 1.79 1.98 1.41 1.58 1.71 1.06 0.85 0.46 0.58 0.45 0.13 0.04 0.04 0.03 0.00 0.00 0.00 0.00 0.00 0.00 0.00 0.00 0.00 0.00 0.00 0.00 0.00 0.00 0.00 0.00 0.00
0.81 0.98 0.92 0.71 0.74 0.57 0.41 0.34 0.30 0.34 0.38 0.13 0.02 0.02 0.00 0.00 0.00 0.00 0.00 0.00 0.00 0.00 0.00 0.00 0.00 0.00 0.00 0.00 0.00 0.00 0.00 0.00
0.93 0.71 0.87 0.89 0.61 0.40 0.30 0.19 0.10 0.14 0.15 0.07 0.01 0.00 0.00 0.00 0.00 0.00 0.00 0.00 0.00 0.00 0.00 0.00 0.00 0.00 0.00 0.00 0.00 0.00 0.00 0.00
0.91 0.71 0.70 0.68 0.53 0.40 0.30 0.16 0.07 0.12 0.07 0.06 0.00 0.00 0.01 0.00 0.00 0.00 0.00 0.00 0.00 0.00 0.00 0.00 0.00 0.00 0.00 0.00 0.00 0.00 0.00 0.00
0.87 1.05 0.77 0.76 0.57 0.43 0.40 0.22 0.08 0.10 0.07 0.07 0.01 0.01 0.00 0.00 0.00 0.00 0.00 0.00 0.00 0.00 0.00 0.00 0.00 0.00 0.00 0.00 0.00 0.00 0.00 0.00
0.62 0.79 0.93 0.87 0.45 0.34 0.31 0.31 0.18 0.11 0.07 0.04 0.02 0.01 0.00 0.00 0.00 0.01 0.00 0.00 0.00 0.00 0.00 0.00 0.00 0.00 0.00 0.00 0.00 0.00 0.00 0.00
0.19 0.42 0.73 0.79 0.62 0.26 0.42 0.21 0.14 0.11 0.10 0.06 0.01 0.01 0.01 0.01 0.04 0.03 0.00 0.00 0.00 0.00 0.00 0.00 0.00 0.00 0.00 0.00 0.00 0.00 0.00 0.00
0.10 0.25 0.52 0.63 0.47 0.20 0.26 0.21 0.07 0.12 0.14 0.12 0.05 0.05 0.07 0.04 0.02 0.00 0.01 0.02 0.00 0.00 0.00 0.00 0.00 0.00 0.00 0.00 0.00 0.00 0.00 0.00
0.01 0.10 0.26 0.33 0.19 0.19 0.10 0.10 0.04 0.06 0.14 0.10 0.09 0.10 0.08 0.07 0.05 0.03 0.05 0.05 0.00 0.00 0.00 0.00 0.00 0.00 0.00 0.00 0.00 0.00 0.00 0.00
0.00 0.00 0.05 0.15 0.06 0.09 0.07 0.08 0.03 0.04 0.07 0.08 0.08 0.07 0.05 0.07 0.09 0.08 0.10 0.05 0.02 0.00 0.01 0.01 0.01 0.00 0.00 0.00 0.00 0.00 0.00 0.00
0.00 0.00 0.01 0.07 0.04 0.02 0.02 0.06 0.05 0.03 0.04 0.07 0.09 0.10 0.05 0.08 0.09 0.05 0.05 0.05 0.05 0.03 0.04 0.02 0.03 0.01 0.01 0.00 0.00 0.00 0.00 0.00
0.00 0.00 0.00 0.03 0.00 0.02 0.02 0.05 0.10 0.05 0.05 0.09 0.08 0.06 0.05 0.03 0.11 0.09 0.08 0.05 0.05 0.06 0.06 0.04 0.03 0.02 0.01 0.01 0.00 0.00 0.00 0.00
0.00 0.00 0.00 0.00 0.00 0.01 0.01 0.01 0.04 0.04 0.01 0.03 0.07 0.07 0.06 0.02 0.02 0.03 0.05 0.05 0.05 0.05 0.06 0.03 0.03 0.03 0.02 0.01 0.00 0.00 0.00 0.00
0.00 0.00 0.00 0.00 0.00 0.00 0.01 0.00 0.00 0.01 0.02 0.04 0.05 0.04 0.04 0.04 0.02 0.07 0.03 0.02 0.05 0.06 0.05 0.05 0.06 0.05 0.05 0.04 0.04 0.04 0.03 0.02
0.00 0.00 0.00 0.00 0.00 0.00 0.02 0.06 0.02 0.01 0.00 0.01 0.04 0.03 0.01 0.04 0.05 0.04 0.06 0.04 0.09 0.12 0.16 0.13 0.19 0.18 0.14 0.16 0.15 0.11 0.09 0.13
0.00 0.00 0.00 0.00 0.00 0.01 0.04 0.10 0.10 0.10 0.03 0.02 0.09 0.06 0.02 0.07 0.15 0.11 0.08 0.20 0.22 0.25 0.25 0.26 0.32 0.41 0.54 0.51 0.43 0.37 0.21 0.16
0.00 0.00 0.00 0.00 0.05 0.19 0.19 0.15 0.19 0.28 0.19 0.08 0.19 0.12 0.08 0.12 0.21 0.35 0.28 0.25 0.24 0.30 0.44 0.61 0.70 0.63 0.57 0.49 0.40 0.31 0.31 0.28

GFSFLT2_prec_precacc24_072.txt.gz
Total_Precipitation_Accumulation
1.59 1.23 1.86 2.86 2.12 1.91 2.34 1.47 0.46 0.19 0.04 0.05 0.03 0.01 0.02 0.00 0.00 0.01 0.01 0.00 0.00 0.00 0.00 0.00 0.00 0.00 0.00 0.00 0.00 0.00 0.00 0.00
1.89 1.58 1.54 1.28 2.19 1.86 1.46 1.13 0.84 0.42 0.16 0.06 0.06 0.05 0.02 0.00 0.00 0.00 0.00 0.00 0.00 0.00 0.00 0.00 0.00 0.00 0.00 0.00 0.00 0.00 0.00 0.00
1.89 3.43 2.41 2.07 2.05 2.01 1.48 1.07 0.87 0.78 0.48 0.22 0.07 0.07 0.08 0.02 0.00 0.00 0.00 0.00 0.00 0.00 0.00 0.00 0.00 0.00 0.00 0.00 0.00 0.00 0.00 0.00
0.67 1.72 2.05 1.62 2.55 2.53 1.41 1.10 0.65 0.70 0.58 0.25 0.10 0.06 0.03 0.00 0.00 0.01 0.00 0.00 0.00 0.00 0.00 0.00 0.00 0.00 0.00 0.00 0.00 0.00 0.00 0.00
0.64 0.83 0.88 0.95 1.56 1.26 1.15 0.79 0.60 0.52 0.54 0.23 0.07 0.03 0.00 0.00 0.00 0.00 0.00 0.00 0.00 0.00 0.00 0.00 0.00 0.00 0.00 0.00 0.00 0.00 0.00 0.00
0.78 0.61 0.76 1.01 1.11 0.75 0.56 0.46 0.33 0.32 0.33 0.16 0.03 0.01 0.00 0.00 0.00 0.00 0.00 0.00 0.00 0.00 0.00 0.00 0.00 0.00 0.00 0.00 0.00 0.00 0.00 0.00
0.85 0.70 0.71 0.76 0.61 0.52 0.40 0.23 0.22 0.27 0.21 0.11 0.01 0.00 0.01 0.00 0.00 0.00 0.00 0.00 0.00 0.00 0.00 0.00 0.00 0.00 0.00 0.00 0.00 0.00 0.00 0.00
0.85 1.08 0.79 0.82 0.61 0.50 0.46 0.25 0.13 0.20 0.17 0.08 0.01 0.01 0.00 0.00 0.00 0.00 0.00 0.00 0.00 0.00 0.00 0.00 0.00 0.00 0.00 0.00 0.00 0.00 0.00 0.00
0.62 0.91 1.01 0.92 0.56 0.47 0.37 0.35 0.20 0.16 0.12 0.05 0.01 0.01 0.00 0.00 0.00 0.01 0.00 0.00 0.00 0.00 0.00 0.00 0.00 0.00 0.00 0.00 0.00 0.00 0.00 0.00
0.21 0.43 0.75 0.84 0.66 0.44 0.54 0.28 0.21 0.15 0.13 0.06 0.01 0.01 0.01 0.00 0.04 0.03 0.00 0.00 0.00 0.00 0.00 0.00 0.00 0.00 0.00 0.00 0.00 0.00 0.00 0.00
0.11 0.27 0.58 0.68 0.55 0.32 0.36 0.37 0.18 0.18 0.15 0.12 0.05 0.04 0.05 0.04 0.02 0.00 0.01 0.02 0.00 0.00 0.00 0.00 0.00 0.00 0.00 0.00 0.00 0.00 0.00 0.00
0.02 0.10 0.33 0.51 0.31 0.27 0.17 0.20 0.16 0.18 0.22 0.12 0.08 0.09 0.07 0.06 0.05 0.03 0.05 0.05 0.00 0.00 0.00 0.00 0.00 0.00 0.00 0.00 0.00 0.00 0.00 0.00
0.01 0.01 0.08 0.18 0.14 0.13 0.13 0.12 0.08 0.10 0.12 0.10 0.08 0.07 0.04 0.07 0.09 0.08 0.10 0.05 0.02 0.00 0.01 0.03 0.01 0.00 0.00 0.00 0.00 0.00 0.00 0.00
0.00 0.00 0.02 0.07 0.05 0.03 0.06 0.10 0.08 0.05 0.08 0.10 0.11 0.10 0.05 0.08 0.09 0.05 0.05 0.05 0.05 0.03 0.04 0.03 0.05 0.05 0.03 0.02 0.00 0.01 0.00 0.00
0.00 0.00 0.00 0.03 0.00 0.02 0.04 0.08 0.13 0.07 0.08 0.12 0.15 0.07 0.05 0.03 0.11 0.09 0.08 0.05 0.05 0.06 0.06 0.04 0.04 0.05 0.04 0.02 0.01 0.02 0.03 0.00
0.00 0.00 0.00 0.00 0.00 0.01 0.01 0.01 0.04 0.04 0.01 0.06 0.16 0.12 0.06 0.03 0.02 0.04 0.05 0.05 0.08 0.07 0.06 0.04 0.06 0.11 0.03 0.02 0.00 0.02 0.02 0.01
0.00 0.00 0.00 0.00 0.00 0.00 0.01 0.00 0.00 0.02 0.03 0.06 0.14 0.19 0.06 0.05 0.03 0.09 0.05 0.03 0.11 0.13 0.07 0.06 0.07 0.12 0.09 0.05 0.04 0.04 0.03 0.02
0.00 0.00 0.00 0.00 0.00 0.00 0.02 0.05 0.02 0.01 0.01 0.02 0.06 0.10 0.05 0.05 0.05 0.06 0.10 0.08 0.14 0.18 0.21 0.19 0.22 0.21 0.17 0.18 0.15 0.12 0.10 0.13
0.00 0.00 0.00 0.00 0.00 0.00 0.00 0.06 0.08 0.09 0.03 0.01 0.08 0.05 0.01 0.05 0.14 0.11 0.09 0.22 0.25 0.28 0.30 0.31 0.35 0.44 0.56 0.51 0.43 0.37 0.23 0.19
0.00 0.00 0.00 0.00 0.03 0.18 0.14 0.07 0.16 0.27 0.19 0.08 0.18 0.10 0.07 0.10 0.20 0.35 0.29 0.26 0.27 0.33 0.45 0.62 0.70 0.63 0.58 0.50 0.40 0.31 0.32 0.31

GFSFLT2_prec_precacc24_075.txt.gz
Total_Precipitation_Accumulation
1.42 1.10 1.76 2.95 2.29 2.24 3.10 2.26 0.76 0.22 0.09 0.11 0.04 0.02 0.02 0.00 0.01 0.01 0.01 0.00 0.00 0.00 0.00 0.00 0.00 0.00 0.00 0.00 0.00 0.00 0.00 0.00
1.42 1.39 1.44 1.25 2.32 2.13 2.04 1.95 1.67 0.85 0.31 0.19 0.17 0.11 0.03 0.00 0.00 0.01 0.00 0.00 0.00 0.00 0.00 0.00 0.00 0.00 0.00 0.00 0.00 0.00 0.00 0.00
1.47 2.97 2.18 2.07 2.13 2.08 1.58 1.31 1.39 1.35 0.71 0.34 0.28 0.18 0.11 0.03 0.02 0.00 0.00 0.00 0.00 0.00 0.00 0.00 0.00 0.00 0.00 0.00 0.00 0.00 0.00 0.00
0.62 1.60 1.96 1.62 2.56 2.67 1.48 1.24 0.85 0.96 0.78 0.36 0.35 0.23 0.06 0.02 0.01 0.01 0.00 0.00 0.00 0.00 0.00 0.00 0.00 0.00 0.00 0.00 0.00 0.00 0.00 0.00
0.61 0.78 0.85 0.90 1.51 1.24 1.28 1.12 0.93 0.65 0.69 0.39 0.32 0.28 0.03 0.04 0.03 0.01 0.00 0.00 0.00 0.00 0.00 0.00 0.00 0.00 0.00 0.00 0.00 0.00 0.00 0.00
0.68 0.51 0.61 0.78 1.03 0.94 0.65 0.77 0.82 0.57 0.55 0.42 0.28 0.18 0.02 0.01 0.01 0.00 0.00 0.00 0.00 0.00 0.00 0.00 0.00 0.00 0.00 0.00 0.00 0.00 0.00 0.00
0.76 0.56 0.56 0.65 0.54 0.67 0.55 0.36 0.59 0.49 0.45 0.41 0.28 0.07 0.02 0.01 0.01 0.00 0.00 0.00 0.00 0.00 0.00 0.00 0.00 0.00 0.00 0.00 0.00 0.00 0.00 0.00
0.73 0.92 0.69 0.77 0.61 0.54 0.50 0.34 0.31 0.51 0.46 0.33 0.22 0.04 0.01 0.01 0.01 0.00 0.00 0.00 0.00 0.00 0.00 0.00 0.00 0.00 0.00 0.00 0.00 0.00 0.00 0.00
0.58 0.89 1.02 0.93 0.57 0.54 0.41 0.39 0.31 0.35 0.36 0.24 0.12 0.02 0.00 0.00 0.01 0.01 0.00 0.00 0.00 0.00 0.00 0.00 0.00 0.00 0.00 0.00 0.00 0.00 0.00 0.00
0.20 0.43 0.76 0.87 0.67 0.64 0.70 0.31 0.28 0.25 0.26 0.15 0.06 0.01 0.00 0.00 0.04 0.03 0.00 0.00 0.00 0.00 0.00 0.00 0.00 0.00 0.00 0.00 0.00 0.00 0.00 0.00
0.11 0.27 0.57 0.70 0.62 0.44 0.48 0.48 0.23 0.22 0.18 0.10 0.03 0.02 0.03 0.02 0.02 0.00 0.01 0.02 0.00 0.00 0.00 0.00 0.00 0.00 0.00 0.00 0.00 0.00 0.00 0.00
0.03 0.11 0.32 0.50 0.39 0.32 0.30 0.33 0.22 0.24 0.20 0.10 0.05 0.06 0.06 0.06 0.05 0.03 0.05 0.05 0.00 0.00 0.00 0.00 0.00 0.00 0.00 0.00 0.00 0.00 0.00 0.00
0.01 0.02 0.08 0.14 0.19 0.21 0.18 0.19 0.10 0.13 0.11 0.10 0.06 0.05 0.04 0.07 0.09 0.08 0.10 0.05 0.02 0.00 0.01 0.03 0.01 0.00 0.00 0.00 0.00 0.00 0.00 0.00
0.01 0.01 0.01 0.01 0.03 0.04 0.07 0.10 0.10 0.06 0.08 0.08 0.09 0.08 0.05 0.08 0.09 0.05 0.05 0.05 0.05 0.03 0.04 0.03 0.05 0.05 0.03 0.02 0.02 0.01 0.00 0.00
0.00 0.01 0.00 0.01 0.01 0.03 0.05 0.12 0.22 0.14 0.12 0.12 0.13 0.05 0.05 0.03 0.11 0.09 0.08 0.05 0.05 0.06 0.06 0.05 0.10 0.06 0.04 0.11 0.13 0.11 0.11 0.02
0.00 0.00 0.01 0.00 0.00 0.02 0.01 0.02 0.08 0.08 0.05 0.07 0.15 0.10 0.04 0.02 0.02 0.04 0.05 0.05 0.08 0.07 0.06 0.04 0.16 0.22 0.04 0.02 0.02 0.10 0.14 0.13
0.00 0.00 0.00 0.00 0.00 0.01 0.01 0.00 0.00 0.02 0.06 0.10 0.17 0.21 0.06 0.03 0.03 0.08 0.05 0.03 0.13 0.18 0.11 0.08 0.14 0.23 0.11 0.10 0.04 0.05 0.05 0.05
0.00 0.00 0.00 0.00 0.00 0.00 0.02 0.06 0.02 0.01 0.02 0.03 0.07 0.16 0.10 0.05 0.04 0.04 0.09 0.10 0.17 0.22 0.26 0.25 0.30 0.30 0.23 0.22 0.19 0.16 0.12 0.16
0.00 0.00 0.00 0.00 0.00 0.00 0.00 0.06 0.08 0.09 0.03 0.01 0.08 0.05 0.03 0.05 0.13 0.10 0.09 0.21 0.25 0.31 0.32 0.34 0.40 0.48 0.62 0.54 0.46 0.39 0.25 0.23
0.00 0.00 0.00 0.00 0.00 0.09 0.08 0.06 0.16 0.27 0.19 0.08 0.18 0.09 0.06 0.09 0.18 0.34 0.28 0.26 0.27 0.33 0.46 0.64 0.73 0.67 0.63 0.54 0.40 0.33 0.34 0.33